Theta_e
316 316 316 316 316 317 317 318 318 318 318 318 319 319 319 319 320 321 321 321 321 322 322 322 322 322 322 322 322 321 316 322 322 318 311 313 322 327 328 329 331 334 329 314 312 312 311 312 312 314 314 313 312 311 313 312 313 311 306 305 302 302 303 305 307 309 309 309 311 314 314 314 313 321 325 328 324 326 326 327 328 332 333 334 336 338 338 340
316 316 316 316 316 317 317 318 318 318 318 318 319 319 319 319 320 320 321 321 321 321 322 322 322 322 322 322 321 319 318 321 314 310 310 323 326 331 333 333 332 331 326 314 313 312 310 310 312 313 312 310 313 310 313 310 312 308 307 305 302 305 307 309 310 310 311 309 312 313 315 314 315 316 324 319 320 321 322 325 328 327 331 333 336 335 337 338
315 315 315 316 316 317 317 317 317 317 318 318 319 319 319 319 320 320 320 321 321 321 321 322 322 322 322 322 320 317 318 317 312 306 313 328 331 332 331 331 329 327 315 312 313 313 312 312 313 313 311 309 311 309 311 309 310 309 306 303 304 307 307 309 310 310 312 312 310 312 315 315 318 319 326 317 318 319 317 321 323 324 326 328 332 335 335 336
315 315 315 316 316 316 317 316 317 318 318 318 318 318 319 319 319 319 320 320 321 321 322 322 322 322 322 321 319 321 321 314 305 308 317 331 332 332 330 330 327 318 315 314 314 314 314 314 313 313 309 309 309 310 308 309 307 308 306 305 305 307 305 308 309 309 309 310 309 311 316 314 320 320 320 319 315 316 318 319 323 323 327 328 331 333 334 335
314 314 315 315 315 316 316 317 317 317 317 318 318 318 319 319 319 320 320 320 321 321 322 321 322 321 322 320 317 321 318 306 303 311 321 331 333 331 331 329 321 314 314 314 315 314 314 313 312 312 311 307 309 309 308 309 310 308 306 307 307 308 305 308 309 309 309 311 310 312 311 312 321 320 320 319 313 316 321 326 328 328 330 328 330 333 334 334
314 314 315 315 315 316 316 316 317 317 317 318 318 318 318 318 319 319 319 320 320 321 321 321 321 322 321 318 320 323 312 295 308 312 334 333 331 332 331 331 323 314 314 313 312 312 312 312 311 309 308 308 307 306 307 308 308 303 307 307 307 308 306 309 308 308 308 311 311 310 315 317 315 319 322 322 321 324 328 328 330 331 331 330 333 333 332 334
314 314 315 315 316 316 316 317 317 317 317 317 317 318 318 318 318 319 319 320 320 320 321 321 321 322 321 317 325 320 309 306 312 320 331 334 333 331 331 331 329 313 313 312 312 311 311 310 310 308 307 306 306 305 306 305 307 305 303 306 306 307 306 308 307 307 308 308 309 317 317 313 316 316 321 323 327 328 329 331 332 333 332 332 333 333 333 334
314 314 315 315 315 315 316 316 317 316 316 317 317 317 318 318 318 318 319 319 320 320 320 320 321 322 318 320 318 309 307 307 315 324 337 334 329 327 325 314 313 313 313 311 311 310 310 308 307 308 306 305 306 305 306 305 306 304 304 305 306 307 307 308 308 307 308 310 315 315 314 319 318 321 322 325 327 330 331 332 332 333 332 332 333 333 333 333
313 314 315 315 315 315 316 316 316 316 316 317 317 318 317 317 317 318 318 319 319 319 320 320 321 320 315 317 311 306 305 313 321 326 328 322 320 316 314 313 314 313 312 313 312 311 310 307 308 308 304 305 307 304 306 304 303 305 304 306 306 306 308 310 311 312 312 316 317 316 317 320 321 323 323 326 327 331 332 331 331 333 330 331 332 334 333 333
313 314 315 315 315 315 315 316 316 316 316 317 317 317 317 317 317 317 318 318 319 319 319 321 321 319 322 318 309 304 309 317 323 328 322 320 318 315 313 315 314 313 312 312 312 311 309 308 308 309 308 306 306 305 305 305 303 306 305 305 305 306 309 314 313 315 316 317 319 314 316 320 322 317 314 327 329 331 331 330 331 330 329 329 331 333 333 333
313 314 315 315 314 315 315 315 316 316 316 316 316 316 316 316 316 316 317 318 318 319 320 320 322 321 320 316 309 304 315 317 323 326 322 320 316 314 313 314 314 313 312 312 311 312 312 311 310 310 308 306 306 305 305 305 307 306 305 305 305 307 312 314 315 315 318 317 320 317 316 319 322 318 318 326 328 331 330 328 328 328 327 327 330 331 333 333
313 314 314 314 314 314 315 315 315 316 316 316 316 316 315 315 315 316 317 317 318 319 319 320 319 325 320 314 310 309 317 319 322 324 321 319 315 315 314 315 314 314 313 311 312 313 312 312 311 308 304 308 303 306 305 307 306 305 305 302 304 305 306 312 312 316 316 315 321 320 313 310 314 310 325 327 329 329 328 328 327 327 327 327 328 328 331 332
313 313 313 313 314 314 314 315 315 315 316 315 315 314 314 314 315 316 317 317 319 319 320 320 321 324 318 312 312 317 320 321 321 321 321 319 318 316 316 316 315 315 314 312 312 313 313 313 311 308 309 307 306 302 306 307 306 306 305 304 302 303 303 311 315 317 314 319 320 318 302 306 309 319 325 327 328 327 326 326 326 326 327 326 327 327 329 332
313 313 313 313 313 314 314 315 315 315 315 315 314 313 313 314 315 316 317 317 319 319 321 319 326 323 318 309 314 319 321 324 320 317 318 319 315 315 315 316 316 316 316 313 313 313 312 313 311 310 310 307 305 310 306 306 306 302 304 304 301 299 300 311 312 316 309 321 319 318 301 305 316 323 327 328 327 326 323 324 325 326 326 327 327 326 327 329
313 313 312 312 313 313 314 314 314 315 314 314 313 312 313 314 316 317 317 319 317 321 320 320 324 320 316 311 316 319 332 323 317 317 319 316 315 313 313 314 314 315 315 314 313 312 313 312 311 308 306 309 308 305 303 304 304 304 299 298 301 298 301 308 312 312 307 317 321 315 301 304 310 321 326 326 327 325 324 324 325 325 325 327 326 326 326 327
312 312 312 312 312 312 313 313 314 313 313 313 312 312 313 314 319 319 318 319 319 320 324 323 322 318 311 306 314 336 323 313 314 319 319 318 315 312 314 313 314 313 312 312 313 312 312 311 308 308 306 307 304 303 302 301 301 303 300 298 298 299 300 301 306 313 315 318 318 312 303 307 315 321 324 327 326 324 324 324 326 325 326 326 325 326 326 326
312 312 312 311 311 312 313 313 313 313 312 312 311 312 315 315 319 320 320 319 322 324 324 318 318 318 308 315 320 313 312 316 320 318 316 317 316 315 314 313 312 312 312 312 312 312 310 308 309 307 307 305 305 303 299 298 299 299 301 300 299 298 299 298 302 308 313 312 309 314 307 306 314 320 323 325 325 324 323 323 325 326 326 326 326 326 325 326
311 311 311 311 311 311 312 313 313 313 311 310 309 312 316 317 318 318 319 322 325 323 322 321 319 315 309 314 307 309 317 317 318 318 317 317 315 315 313 311 312 311 311 309 310 308 309 306 307 303 304 304 303 302 297 295 298 298 299 299 298 299 299 299 299 305 307 309 308 310 309 307 314 318 321 323 325 324 323 323 324 325 326 327 326 326 326 326
311 311 311 311 311 311 312 312 312 312 310 309 311 310 315 314 320 323 322 320 316 314 307 310 311 303 302 308 314 315 316 319 319 317 314 314 315 315 314 314 311 309 307 306 307 307 308 306 306 302 299 301 301 302 300 300 300 299 300 299 299 298 299 299 302 306 305 304 307 307 307 308 310 314 318 323 324 323 323 324 324 325 325 327 327 327 326 326
310 310 310 310 311 311 311 311 311 310 309 310 320 322 321 320 318 314 317 317 312 311 311 314 314 313 310 312 312 318 320 318 313 313 314 314 314 312 311 311 309 309 306 303 305 305 307 301 299 299 301 302 302 302 302 302 302 301 300 300 299 299 299 301 302 303 308 303 303 305 307 308 310 312 315 320 323 323 323 323 323 324 325 327 328 327 328 328
310 310 310 311 311 311 310 310 310 309 308 313 317 319 308 309 304 305 310 311 314 315 313 312 314 313 312 315 316 316 311 312 314 312 313 318 314 310 307 309 306 303 305 305 304 308 306 300 300 302 303 302 303 303 302 302 302 301 300 299 299 299 299 301 302 306 307 305 303 305 304 306 310 312 315 319 320 319 320 322 323 324 325 327 328 328 327 329
310 310 310 310 311 310 310 309 308 308 309 316 321 313 314 314 314 316 312 305 312 314 313 313 316 312 316 316 318 317 315 310 309 312 314 315 311 306 307 306 304 302 305 305 304 303 301 299 302 303 304 304 303 302 303 302 301 301 300 300 299 300 301 302 305 306 307 304 302 306 304 305 307 310 314 317 317 319 322 322 323 325 325 326 326 327 328 329
309 309 310 310 310 310 309 308 308 306 320 322 315 315 313 316 318 319 317 311 308 314 311 312 310 311 312 317 317 317 311 307 306 310 312 313 309 307 307 304 304 303 304 304 300 301 299 301 304 305 304 303 302 302 302 302 302 301 300 299 298 301 298 297 302 307 306 304 302 305 304 304 309 313 315 318 317 319 322 324 326 326 327 327 327 327 328 328
309 309 309 310 310 309 308 307 305 314 313 314 315 311 311 314 318 318 313 307 305 309 312 312 312 311 311 310 317 315 310 309 310 307 316 312 307 309 306 305 303 302 302 303 302 301 300 303 305 304 304 303 302 302 302 301 300 301 300 300 299 299 300 299 300 302 304 309 308 305 302 302 305 306 308 315 320 320 323 325 326 327 327 328 328 327 329 329
309 309 309 310 309 308 307 305 312 310 309 315 313 311 311 315 320 320 313 311 310 308 317 316 315 314 314 318 318 312 312 312 311 313 315 313 308 306 305 308 305 301 302 303 303 301 301 304 304 303 303 303 302 301 301 301 299 300 301 301 300 300 299 300 301 300 299 300 303 301 294 296 303 304 304 314 317 318 320 320 322 324 326 327 326 328 330 330
308 308 309 309 309 307 306 313 311 309 307 313 315 313 311 315 320 322 314 306 301 308 311 305 317 309 319 310 315 314 313 306 313 313 314 313 315 309 306 304 305 301 302 302 302 304 303 304 303 302 302 302 302 301 302 302 299 298 300 302 301 301 300 300 299 299 296 294 300 302 294 292 302 301 304 308 309 310 318 319 319 320 322 325 326 326 327 328
308 308 309 309 308 307 313 313 309 310 306 313 315 313 311 316 326 321 310 304 296 307 305 310 311 310 314 313 314 313 297 302 310 312 312 313 309 313 304 304 304 305 305 306 302 299 304 303 302 303 302 301 301 299 302 302 300 298 302 303 302 301 300 300 299 299 297 301 302 301 299 294 294 300 306 306 305 306 309 314 317 317 318 320 322 325 327 327
308 309 309 308 307 307 309 310 310 304 303 310 311 311 315 321 324 323 308 288 289 308 305 307 308 315 312 313 314 307 306 309 303 308 312 312 311 308 305 304 303 303 304 303 295 305 304 301 302 301 301 301 300 302 303 303 300 300 302 303 301 301 301 300 300 299 299 297 294 299 301 294 294 300 306 306 302 303 304 307 309 311 312 317 322 321 324 327
308 309 309 308 307 307 311 311 306 304 308 309 310 313 318 326 321 312 299 287 307 307 314 306 315 312 309 311 308 309 306 308 303 307 310 311 312 309 303 305 305 304 305 304 299 302 305 304 304 304 302 300 303 304 304 303 300 303 304 304 303 303 302 301 300 299 298 296 291 296 300 293 293 299 301 305 302 301 303 306 308 309 311 315 317 318 321 327
309 308 308 308 309 313 311 312 308 308 311 309 311 317 322 320 313 300 291 285 307 300 307 307 306 305 309 304 305 307 305 306 307 307 309 307 308 309 306 309 305 304 302 304 303 304 304 308 310 304 302 304 305 304 303 304 303 305 304 302 301 301 301 302 301 300 298 290 294 297 297 296 289 297 299 300 303 305 306 307 308 310 312 315 319 320 322 324
308 308 308 308 307 309 305 305 309 309 309 311 312 319 320 314 301 292 285 296 306 306 307 305 304 308 304 303 301 306 306 306 305 306 303 307 305 307 308 304 308 303 303 302 302 303 304 305 303 305 307 305 306 302 303 303 304 303 301 300 300 299 301 299 299 300 291 289 296 298 297 298 289 295 302 305 305 306 306 306 307 309 311 314 317 318 321 323
308 307 307 308 309 309 302 304 307 312 309 310 315 315 309 295 300 287 288 306 296 305 304 303 306 306 304 306 304 304 302 305 306 304 303 303 303 301 302 299 302 295 296 298 297 303 301 302 305 306 308 305 303 302 301 302 303 302 301 300 295 293 294 289 295 289 290 290 296 299 298 295 295 300 302 304 305 307 309 310 310 311 311 314 316 320 322 323
307 306 306 307 308 309 308 308 310 311 312 314 316 308 301 291 285 295 295 301 298 310 304 309 304 304 305 303 302 305 307 302 306 305 305 305 303 303 305 303 305 302 295 301 299 299 299 303 303 304 305 306 305 299 299 298 301 300 299 297 294 289 288 285 289 293 292 296 299 298 299 293 298 301 305 304 306 308 310 312 313 313 313 314 314 317 318 322
306 306 308 310 309 310 311 315 312 312 313 316 310 302 297 288 288 305 299 301 304 308 308 306 305 305 305 301 303 305 301 305 304 304 305 302 302 301 302 304 305 303 302 303 297 298 292 294 300 302 300 306 304 303 303 302 301 300 302 300 297 296 291 285 287 286 289 292 296 299 294 293 294 300 305 307 308 310 312 313 314 314 315 317 316 316 318 320
305 307 311 313 312 311 311 312 313 313 312 309 303 298 288 289 295 295 297 300 306 308 307 307 304 303 302 303 305 305 305 302 305 304 302 301 300 301 301 302 304 304 303 297 301 300 297 298 304 306 306 307 304 306 306 303 302 303 303 303 298 296 302 292 294 294 294 293 292 296 293 299 299 306 308 309 309 310 311 313 315 315 316 317 317 316 318 319
306 311 312 310 309 312 313 313 314 311 310 303 298 292 290 295 293 299 299 308 308 304 306 304 304 302 302 302 305 304 306 302 304 303 302 302 303 301 304 304 303 304 302 297 303 295 298 296 304 303 305 304 305 306 305 306 294 301 301 296 299 306 302 295 293 299 296 292 289 296 298 300 305 305 306 307 307 307 309 310 312 312 314 318 317 316 317 318
307 309 308 314 311 313 313 313 312 309 310 302 295 290 297 299 301 301 305 303 306 307 305 298 301 300 300 300 303 303 304 303 304 302 299 304 301 303 303 304 307 305 305 304 302 305 298 297 304 303 300 304 305 305 305 305 306 302 297 301 304 306 304 298 289 291 290 287 289 297 294 296 297 292 304 305 304 306 307 308 309 310 313 314 315 316 316 319
306 307 308 309 311 315 312 312 311 310 305 300 292 295 300 297 303 302 307 305 305 306 303 300 301 305 300 300 301 303 306 300 302 302 300 303 299 307 304 303 306 305 306 307 301 303 303 296 301 304 304 304 305 304 302 304 305 303 302 308 298 292 291 298 293 286 286 286 288 294 296 296 297 298 303 303 304 305 307 308 308 309 310 311 312 314 317 321
306 307 303 313 319 316 312 311 311 305 301 295 294 292 299 300 303 302 306 305 307 305 300 303 301 305 304 302 302 305 305 299 303 301 298 303 298 306 304 305 304 306 307 307 303 306 305 295 299 303 303 303 304 303 295 300 303 304 305 303 305 302 299 294 293 296 295 288 288 290 294 291 302 302 303 303 305 306 306 307 308 308 310 310 311 312 313 316
304 306 300 318 317 315 313 312 308 302 298 291 295 296 301 299 301 303 306 306 304 301 300 300 304 301 303 303 305 302 306 304 303 303 302 305 301 306 303 306 305 305 306 307 304 307 301 305 293 301 304 302 297 301 300 302 299 299 299 299 301 301 303 301 302 297 294 289 289 288 288 293 302 306 305 305 306 307 307 307 309 309 310 311 312 314 315 315
307 302 301 320 316 313 311 309 301 297 295 298 299 298 299 299 300 301 304 306 305 308 304 303 302 299 301 302 302 306 304 304 304 302 303 304 302 297 306 305 307 304 305 304 304 305 298 301 293 299 298 298 300 306 304 304 305 303 300 299 300 298 295 291 290 300 297 294 289 289 287 297 305 308 308 306 308 307 308 308 309 310 310 312 314 316 319 320
301 296 301 319 316 313 308 298 297 300 297 294 295 300 299 305 300 301 303 306 306 303 307 305 306 305 303 303 303 304 304 303 304 303 305 302 306 305 306 308 307 308 304 300 302 307 307 305 300 295 299 300 303 304 306 305 304 305 304 302 304 303 301 297 288 293 297 297 298 296 291 293 307 308 308 308 308 308 309 309 309 309 311 312 314 316 319 323
297 294 314 318 315 315 308 300 300 296 297 298 301 302 303 302 299 300 300 303 302 304 305 304 304 303 304 304 304 305 306 302 303 302 304 305 305 306 306 307 308 307 307 305 306 307 305 302 298 299 303 304 303 305 305 304 304 302 303 304 303 300 302 299 298 300 295 297 293 293 289 294 306 309 309 309 310 309 310 310 309 310 311 313 314 314 315 318
299 299 302 320 318 317 303 290 292 295 297 298 301 300 301 300 301 300 300 301 302 302 302 303 303 306 304 307 305 303 306 295 304 303 302 305 304 309 307 306 307 305 305 306 302 307 297 301 299 294 294 297 300 301 302 305 303 301 301 303 303 303 303 303 302 303 293 296 296 292 287 294 306 309 309 309 309 308 309 309 311 309 311 312 313 313 314 316
300 302 301 307 316 314 300 300 296 295 296 297 298 296 298 300 303 302 301 299 304 303 304 302 304 306 304 307 305 305 306 303 300 305 305 306 305 306 307 307 307 306 308 310 312 309 300 301 298 292 289 286 286 288 291 294 298 301 303 303 303 301 301 300 293 297 291 296 297 293 292 301 306 307 307 308 308 308 309 309 310 311 313 312 312 313 314 315
297 290 300 301 309 309 307 309 304 298 296 295 293 296 298 296 300 303 303 302 305 306 305 304 304 305 304 304 301 301 302 305 302 302 303 302 304 305 307 307 306 307 313 314 312 310 301 305 303 300 296 293 296 299 302 304 302 298 301 302 302 302 302 302 300 295 292 297 295 298 298 299 302 304 305 307 308 308 308 310 309 310 312 313 314 313 315 315
301 294 295 292 302 304 302 303 301 301 295 299 290 295 294 297 299 299 303 298 302 302 301 302 302 300 302 302 300 300 302 301 303 302 303 303 304 305 306 307 307 311 313 309 313 309 305 300 302 303 302 302 303 302 305 303 301 302 301 301 303 302 302 301 295 294 301 296 291 299 301 299 300 304 305 307 307 308 309 310 310 310 311 312 313 314 314 314
292 298 301 303 296 291 294 295 300 297 298 299 296 298 295 295 297 294 301 302 303 304 298 299 300 301 301 301 301 295 300 299 300 296 303 304 304 304 303 304 306 313 314 308 311 307 303 296 303 303 302 303 304 304 304 304 303 303 303 302 302 303 302 300 300 301 301 294 292 300 302 300 302 305 306 307 308 309 309 310 312 313 313 312 312 311 312 312
300 300 299 304 294 297 297 298 300 297 295 297 297 297 296 296 295 299 299 299 299 298 300 292 297 299 300 302 301 297 300 294 293 301 301 301 302 303 301 303 305 308 309 307 307 310 304 299 303 302 301 302 303 303 304 301 302 303 302 302 303 302 302 302 302 303 302 301 302 302 302 302 304 306 307 309 310 310 310 312 313 312 311 311 311 311 312 312
295 294 293 299 298 297 298 298 297 297 294 298 291 295 296 296 295 298 300 299 293 297 300 296 297 299 300 300 301 297 300 302 301 296 302 303 302 304 303 304 302 305 307 305 305 309 303 295 302 302 298 299 302 303 303 302 301 300 302 302 302 303 303 303 303 303 304 302 303 303 302 301 307 310 309 311 312 311 311 309 310 311 311 312 312 312 312 313
301 305 304 296 291 293 295 296 294 294 292 294 292 294 295 296 296 299 298 301 298 297 298 297 298 302 301 300 300 301 304 303 303 303 302 303 297 302 302 303 304 303 303 304 305 305 302 297 302 300 293 295 301 300 301 301 301 300 300 300 301 301 299 301 299 303 302 300 302 301 299 299 306 309 310 310 310 309 308 309 310 311 312 312 311 311 312 313
303 305 304 299 290 294 292 295 294 293 288 294 295 296 296 295 298 299 294 299 300 302 301 300 302 300 298 299 299 301 303 303 303 303 304 304 305 305 305 304 304 303 303 302 306 301 300 298 293 296 292 292 299 300 299 299 298 295 294 300 302 302 302 303 304 305 304 304 299 295 298 304 306 309 307 308 309 308 309 309 310 311 312 311 312 312 312 313
Wind_Speed
19 18 17 18 18 18 18 19 19 19 19 19 18 18 17 17 15 15 14 13 12 11 10 9 8 8 8 8 7 6 9 7 5 6 3 5 5 3 3 3 4 4 6 5 5 8 7 7 8 7 7 7 5 4 4 2 2 4 6 3 5 5 2 5 4 3 4 5 3 3 1 1 1 3 5 5 4 5 5 4 6 6 7 5 6 7 9 12
19 19 18 18 18 18 18 19 19 19 18 17 17 17 16 16 16 15 15 14 13 12 11 9 9 8 8 7 7 6 7 7 4 6 8 4 4 3 2 4 3 5 6 6 5 4 6 7 8 8 8 5 4 2 5 4 3 5 1 5 3 4 8 3 6 1 4 10 4 3 1 2 4 1 4 4 4 4 4 3 3 5 5 5 6 9 10 12
19 19 18 18 18 18 19 19 19 18 18 17 16 16 16 16 16 15 15 14 14 13 12 10 9 8 8 6 6 4 5 8 3 9 5 4 5 4 3 4 5 5 6 2 2 2 0 7 8 8 2 6 4 7 6 5 5 2 6 1 4 3 3 3 2 3 3 3 3 3 0 3 3 1 4 4 1 1 4 1 3 3 4 6 7 10 11 11
19 18 18 18 19 19 19 19 19 18 18 17 17 16 16 16 16 16 15 14 13 13 12 11 10 9 8 7 5 5 5 8 9 5 6 7 6 5 5 5 4 5 0 2 2 1 1 5 6 6 5 5 6 2 6 6 7 4 6 1 6 3 4 2 1 3 5 4 5 3 2 4 2 1 2 1 5 7 7 4 2 3 5 6 9 10 11 10
19 18 18 19 19 19 19 19 19 19 18 18 17 16 16 16 15 15 15 14 14 13 12 11 10 9 7 7 8 5 6 6 6 3 8 8 7 6 6 4 5 2 1 2 3 3 4 6 7 4 5 6 4 4 1 2 4 5 5 5 4 2 4 2 5 9 6 4 5 2 4 5 2 1 2 2 6 5 5 3 4 4 8 8 10 9 9 11
20 19 18 19 19 19 19 19 19 19 19 18 17 17 16 15 15 15 15 14 14 13 12 11 11 10 7 4 6 6 6 2 4 4 9 8 7 6 5 4 2 1 3 2 1 2 5 7 7 7 4 4 6 4 7 1 1 5 6 3 5 6 7 5 5 5 5 3 3 3 3 1 3 1 2 2 4 4 4 3 5 7 9 9 9 8 8 10
20 19 19 19 19 20 20 19 19 19 19 18 18 17 16 15 15 15 15 14 14 13 12 12 11 11 11 9 6 7 1 9 3 7 10 9 6 6 5 5 6 4 4 2 2 4 3 6 7 4 3 0 5 1 3 0 3 6 4 4 5 5 7 6 7 5 4 4 3 3 2 4 1 3 2 2 3 4 4 5 7 9 10 9 11 9 8 9
20 19 20 20 20 20 20 20 19 19 19 18 18 16 16 15 15 15 15 14 14 13 12 12 11 11 12 7 7 4 7 8 8 7 10 8 6 7 7 4 4 3 1 4 3 4 1 4 3 4 4 2 6 2 3 5 5 4 2 2 5 5 4 4 5 5 2 1 1 2 3 2 1 2 6 4 3 4 6 7 9 9 8 8 7 7 7 8
21 20 20 21 20 21 20 20 20 20 19 18 18 17 16 16 16 16 15 14 13 12 12 11 11 10 5 6 5 5 7 5 4 9 13 10 8 8 8 4 3 2 2 2 3 3 4 6 1 4 2 4 3 3 3 6 7 2 4 5 5 5 5 4 2 2 2 2 3 4 2 4 3 2 2 4 5 5 6 8 9 8 7 7 7 7 7 7
22 21 22 22 21 21 21 21 20 20 20 19 18 18 18 16 15 15 14 13 12 11 10 10 9 8 7 7 3 4 6 3 5 8 11 10 8 7 7 4 2 1 2 3 1 1 5 5 5 2 3 1 1 1 3 7 6 5 5 5 6 4 3 2 2 3 2 3 4 3 2 4 5 5 3 5 5 6 7 8 8 8 7 6 6 5 6 7
22 22 23 23 23 22 22 22 22 20 20 20 19 19 18 16 15 15 14 12 11 10 9 10 8 8 6 7 7 4 3 4 4 6 9 9 9 8 5 3 3 3 2 1 2 3 3 2 1 1 4 3 3 3 4 4 5 6 6 5 4 2 1 1 2 3 3 3 3 2 1 1 3 5 2 7 6 5 7 8 7 7 8 7 7 5 5 5
22 23 24 24 23 23 23 23 22 22 21 21 20 19 18 17 16 14 13 11 10 9 8 8 6 5 7 7 2 6 6 2 4 6 7 9 8 5 3 4 3 4 4 3 2 1 1 1 3 3 4 2 4 2 3 3 6 5 4 7 5 4 6 3 2 2 2 2 3 2 4 7 7 4 9 8 6 6 6 7 7 7 7 7 8 7 6 6
23 23 24 24 23 23 24 24 23 23 22 21 18 20 19 18 17 13 11 9 6 6 5 4 6 4 6 6 6 7 2 2 4 5 6 7 4 3 3 3 4 4 5 5 4 3 1 2 3 4 2 5 4 5 4 6 4 4 5 6 6 8 9 8 3 2 3 3 3 3 8 6 6 9 8 8 7 7 7 7 7 7 6 6 7 7 7 7
23 23 23 23 23 23 23 25 25 23 23 20 22 20 20 17 13 10 7 8 1 2 2 3 5 5 6 1 5 4 2 1 4 7 7 5 6 5 4 4 3 3 2 4 3 3 3 2 4 3 2 5 1 2 7 4 4 6 2 4 8 5 3 4 3 3 5 4 4 5 8 3 9 8 9 6 7 7 6 6 7 7 6 5 6 6 6 7
22 23 23 23 23 24 23 25 25 24 22 22 21 21 17 12 9 6 2 4 4 2 2 4 4 4 5 5 4 5 2 3 7 3 4 6 6 5 6 4 4 3 2 2 2 1 1 3 5 6 3 1 5 8 8 5 5 3 6 7 6 8 6 7 4 4 6 5 4 6 7 2 6 7 6 6 6 5 5 6 6 6 6 6 6 6 6 6
22 22 22 22 23 23 23 23 23 23 23 21 22 19 14 9 4 1 3 1 5 4 5 5 5 5 8 5 6 7 5 7 5 2 2 5 4 4 4 1 1 3 4 2 1 2 3 5 4 4 4 6 7 5 5 5 6 4 7 3 3 4 2 6 7 3 2 2 6 10 6 2 8 6 6 5 6 5 5 6 6 7 7 6 5 5 6 6
22 21 21 21 23 23 24 23 22 22 23 21 19 16 8 6 1 3 7 9 4 4 4 3 1 2 5 5 5 7 7 4 1 5 2 2 4 2 3 4 4 4 3 4 4 5 4 6 3 5 5 6 2 4 7 5 2 3 2 1 3 4 1 3 8 3 3 6 6 10 9 5 7 6 5 6 5 6 5 6 7 7 7 7 6 7 7 7
21 21 21 21 22 23 24 24 23 22 23 23 20 11 8 2 4 7 5 5 2 4 3 2 4 4 7 6 10 8 4 2 2 2 2 1 2 3 4 5 3 5 4 5 6 7 4 5 4 6 5 7 6 6 6 4 2 1 1 3 6 3 3 5 1 6 4 7 9 8 11 10 5 5 5 5 6 6 6 6 6 7 7 7 8 8 9 9
21 21 20 20 21 22 23 24 24 22 22 22 17 9 6 4 6 7 4 4 5 4 6 7 6 8 3 12 6 5 2 3 1 4 6 5 4 2 2 2 4 6 7 7 7 7 5 5 4 6 8 8 7 5 4 7 2 2 3 3 3 4 3 1 5 2 3 6 8 9 9 9 8 6 5 6 7 7 7 6 6 7 7 8 8 8 9 9
21 21 20 20 20 21 21 22 23 22 19 16 6 4 5 4 4 4 7 7 10 11 7 3 6 3 3 6 7 4 2 3 6 5 4 4 6 7 5 4 6 6 5 6 7 4 1 8 8 8 8 4 3 1 2 2 2 1 2 4 0 5 3 2 2 3 2 6 6 7 8 9 6 5 5 6 7 8 8 9 8 8 8 8 8 9 9 9
20 21 21 21 22 21 21 20 21 22 17 9 8 7 4 8 8 3 9 11 7 6 9 10 7 7 2 4 2 2 4 8 4 7 5 4 5 7 7 7 7 8 3 2 3 5 7 7 8 5 4 3 2 1 2 1 2 4 3 5 4 5 1 4 3 2 1 6 1 1 7 8 8 7 6 5 8 9 9 9 10 10 9 8 9 9 9 8
20 21 21 22 23 23 21 21 21 20 16 5 6 5 3 7 4 4 5 6 5 6 7 8 2 9 6 7 2 2 3 4 11 8 6 7 7 10 9 9 6 5 6 4 5 6 7 9 6 3 3 3 2 3 3 3 4 3 6 2 6 4 1 2 2 2 1 4 3 2 6 5 6 7 7 8 9 8 8 9 9 9 10 9 9 9 8 8
19 20 21 24 23 23 23 22 21 14 6 3 4 3 5 5 5 3 5 8 12 6 6 7 9 11 8 2 4 5 9 9 9 13 10 8 7 9 5 9 7 2 4 5 7 6 6 9 6 4 4 5 4 5 5 5 5 6 5 7 7 8 5 3 6 1 2 3 6 6 7 5 3 5 7 8 8 8 8 8 8 8 8 9 9 8 8 9
19 19 21 22 23 24 23 22 21 8 3 5 4 6 5 6 6 4 6 6 7 4 7 5 7 8 10 7 8 10 11 7 4 13 8 10 9 5 7 8 4 4 6 4 6 7 1 9 7 5 7 7 7 6 7 7 6 3 5 5 7 2 1 8 5 1 2 4 5 6 8 8 7 7 7 8 7 7 8 8 9 10 10 9 8 9 8 9
19 19 19 22 23 25 26 20 4 4 6 4 2 4 5 5 5 5 6 6 6 4 4 3 4 6 4 3 6 10 10 1 9 4 9 11 8 6 5 2 5 7 4 3 5 7 4 5 4 7 7 8 7 7 7 6 7 4 6 5 5 2 6 1 2 6 6 7 3 5 7 7 3 5 6 5 6 8 7 9 10 10 10 10 11 11 9 9
18 18 19 21 23 26 26 6 4 6 7 1 5 4 5 5 4 3 5 4 6 5 5 5 5 5 6 8 8 7 5 9 8 4 7 4 3 6 4 7 4 4 6 6 7 4 4 5 5 6 9 9 8 8 4 4 7 5 5 2 2 4 3 3 6 4 7 7 6 4 7 6 3 6 5 4 6 7 6 9 9 9 9 10 10 9 10 10
17 18 18 20 21 23 10 2 6 8 5 5 4 5 5 5 2 4 4 4 5 4 4 6 5 3 4 10 11 8 10 9 6 5 7 4 9 3 8 6 6 3 1 2 3 8 6 6 6 5 8 9 8 9 8 7 6 4 7 1 3 4 4 4 6 6 8 5 7 5 7 8 8 6 5 4 6 8 8 9 9 9 10 10 9 8 8 9
17 16 17 18 19 15 5 8 8 4 4 4 3 5 5 3 2 2 4 3 2 4 4 6 2 2 4 8 10 13 5 11 10 9 5 6 4 8 9 6 8 7 7 6 9 7 9 9 9 9 10 8 9 5 6 7 7 3 3 3 4 3 2 5 5 6 5 6 7 6 6 7 8 6 6 5 10 10 11 10 10 10 10 9 9 9 8 9
15 15 16 16 18 16 4 4 7 5 3 4 4 5 3 2 4 3 3 5 3 3 4 4 2 6 3 7 10 10 4 6 6 9 7 6 5 4 10 10 7 3 6 8 9 7 3 1 3 7 8 8 6 2 4 5 10 6 4 3 2 4 4 5 7 5 2 5 6 3 1 8 8 8 5 7 7 9 8 9 9 7 5 5 6 7 5 6
13 13 14 14 15 4 3 4 8 5 5 4 6 5 2 4 4 5 2 6 5 4 6 4 7 9 10 11 10 12 10 6 0 6 9 8 10 5 2 5 5 7 8 8 11 3 5 3 2 4 8 4 3 5 1 4 2 5 6 6 6 6 6 4 5 5 5 5 6 3 2 6 7 7 5 4 4 5 6 5 4 3 1 2 1 2 2 4
13 12 12 11 6 4 6 6 3 2 1 6 8 6 4 3 4 3 5 1 2 3 3 6 7 6 14 14 11 11 12 8 7 10 9 7 9 9 5 5 5 7 6 7 9 10 8 6 6 5 2 1 2 4 2 1 4 6 6 7 5 7 5 7 5 5 5 6 6 3 1 5 8 3 4 4 1 3 4 6 7 7 7 6 3 1 1 2
13 13 12 9 8 6 5 1 4 2 6 9 9 5 5 4 6 6 4 6 6 6 8 7 6 9 12 14 11 12 11 10 9 11 11 11 10 10 11 9 9 9 9 8 9 9 11 10 9 6 2 7 9 9 6 6 6 8 7 7 7 5 3 4 7 6 6 3 6 4 3 6 9 8 9 7 6 4 3 5 6 6 7 7 5 4 3 1
13 14 17 13 10 8 13 14 7 7 7 7 6 5 6 5 7 10 10 4 1 1 5 2 7 10 9 11 13 10 11 11 12 12 12 12 11 12 14 14 10 10 5 9 7 7 9 10 12 10 6 9 9 11 7 9 10 10 10 8 7 7 5 4 5 4 5 3 3 3 1 8 9 8 2 1 1 1 1 2 3 4 5 6 7 5 4 3
14 15 12 6 7 10 8 5 4 3 5 4 6 6 8 8 9 4 10 10 3 2 2 5 5 4 9 11 11 12 8 11 10 11 12 9 11 11 11 13 9 11 9 3 8 8 5 9 12 11 9 12 13 13 7 6 10 11 10 8 8 8 6 4 5 5 5 2 6 6 4 2 6 7 2 2 3 4 4 5 5 6 6 6 6 6 6 5
19 19 13 10 9 12 14 11 6 5 3 5 7 9 10 12 7 9 9 9 4 3 5 4 7 8 10 13 4 10 9 8 12 11 12 12 11 12 11 12 15 13 9 8 7 4 9 7 7 10 4 11 14 13 6 6 5 6 5 6 8 10 5 8 4 6 5 4 4 7 4 2 4 4 4 5 5 7 7 6 6 6 6 6 6 5 4 4
16 6 5 6 4 3 8 7 8 7 6 6 9 10 15 10 8 9 5 2 3 6 7 5 7 9 9 9 10 12 6 6 11 11 10 14 13 13 14 10 13 17 10 9 5 8 5 9 11 6 6 5 9 7 8 5 8 8 8 10 6 3 7 1 2 3 2 5 8 4 7 7 5 9 5 0 3 3 3 4 5 4 4 5 5 4 4 3
7 9 5 5 6 3 5 8 8 8 7 9 10 13 12 10 13 3 2 3 1 1 7 10 9 10 9 10 9 13 8 7 7 11 10 11 11 13 12 12 10 17 17 11 7 7 5 6 9 10 11 5 1 5 4 6 4 5 8 6 7 1 5 3 5 3 4 7 4 3 8 7 3 2 4 2 4 2 3 3 2 3 4 5 3 3 3 2
9 6 7 6 1 6 5 8 9 6 7 10 14 14 7 13 10 14 2 3 3 5 8 10 4 6 10 10 10 12 11 12 10 11 11 12 5 10 14 10 12 12 17 16 10 7 9 8 9 8 5 8 5 6 7 4 4 8 6 8 9 6 9 8 4 8 6 7 6 8 9 10 7 6 2 2 3 4 4 4 5 4 4 3 3 4 2 2
7 6 5 4 3 7 10 9 8 7 9 11 13 11 13 13 8 8 6 8 4 6 10 10 9 7 6 7 8 7 12 12 11 11 11 10 11 8 13 11 11 14 13 14 11 4 7 8 4 5 7 7 7 8 9 9 7 4 3 7 3 5 8 5 6 8 7 8 7 8 7 7 4 3 1 5 4 5 5 6 5 6 5 3 3 3 3 2
5 4 5 4 3 6 10 11 7 8 10 14 11 12 5 11 14 11 7 8 8 10 10 11 11 8 7 9 5 7 10 14 11 10 13 7 11 5 7 7 7 13 11 12 11 7 7 6 9 6 4 8 9 9 11 9 9 10 10 10 7 8 2 7 3 7 8 7 7 7 8 7 7 2 3 5 5 6 6 7 6 5 5 4 4 3 4 5
4 5 1 4 4 6 6 6 8 11 12 10 13 12 12 9 6 9 12 11 9 7 9 8 8 10 8 9 10 6 5 9 10 11 10 9 11 5 9 9 8 9 8 11 12 8 5 9 10 7 9 9 11 9 10 10 11 11 11 11 10 10 9 10 10 8 10 9 8 8 10 8 3 3 2 5 5 7 8 7 7 6 6 5 5 5 4 5
5 6 1 3 5 10 8 6 4 5 7 12 12 9 10 4 10 8 6 8 11 8 6 7 9 8 8 10 8 8 7 9 11 11 10 11 11 8 7 10 9 9 10 9 11 11 6 6 9 10 9 10 4 6 3 4 6 8 9 12 12 11 10 10 10 7 7 11 12 12 11 9 2 3 3 6 6 8 8 6 8 8 7 7 6 6 6 5
5 7 6 3 8 8 5 2 5 4 7 8 9 9 7 5 8 10 12 10 10 10 8 9 10 9 11 8 9 9 10 9 12 12 9 13 9 11 7 11 7 11 12 7 6 5 3 7 10 10 12 4 6 4 2 2 4 9 11 10 10 12 12 11 11 8 9 7 6 8 10 8 10 6 6 5 7 8 7 7 10 9 8 8 9 8 8 7
4 5 2 4 6 7 8 7 6 7 7 10 10 10 10 10 9 10 11 12 10 8 11 9 9 12 9 8 9 10 8 7 10 12 11 9 8 7 10 10 12 10 12 7 9 10 6 8 10 9 9 10 7 4 6 4 5 9 10 12 13 13 14 12 9 3 9 13 16 11 12 8 3 6 5 6 9 11 10 9 8 10 10 10 10 9 7 7
3 3 6 3 4 6 9 5 5 3 8 10 11 14 11 7 7 13 12 14 12 12 8 11 12 6 9 5 8 9 10 12 7 12 12 7 8 4 6 7 12 9 13 4 2 11 10 7 10 12 13 13 12 11 11 10 11 10 11 8 11 15 14 7 9 11 13 11 15 12 12 11 5 8 6 7 10 11 9 9 10 8 10 10 9 9 10 11
4 3 3 4 5 6 8 4 6 6 6 9 9 13 13 13 8 4 6 9 8 8 9 6 4 8 9 7 7 9 10 10 10 4 8 9 7 4 5 8 9 11 5 5 7 11 7 10 12 13 14 13 12 7 6 5 8 12 12 13 12 12 13 12 11 12 13 11 12 14 16 15 16 15 13 11 9 10 11 11 11 12 11 11 10 11 11 11
2 4 2 4 4 7 8 7 7 5 6 6 8 6 15 15 12 7 9 6 8 8 6 7 8 9 8 9 10 10 10 10 10 9 8 9 10 4 4 6 9 5 8 5 10 10 8 10 14 17 17 16 15 12 3 3 7 11 12 11 13 12 12 13 10 13 12 13 16 13 15 16 16 15 13 14 12 12 13 13 13 13 14 14 12 12 14 16
4 4 5 2 2 1 3 7 11 12 11 10 7 7 15 16 16 12 6 6 2 7 8 4 9 14 10 10 8 7 6 7 8 8 10 8 6 6 6 6 10 9 8 9 10 10 10 8 13 14 17 16 15 16 11 9 11 11 12 12 12 11 11 14 15 15 15 12 15 14 15 17 14 14 13 13 11 12 13 15 15 14 13 15 16 17 17 18
5 3 3 1 6 6 9 4 6 9 14 14 9 13 15 18 20 18 13 6 6 5 11 5 13 14 13 9 7 8 7 6 6 7 8 7 9 8 9 9 7 4 10 9 9 3 7 10 12 11 12 13 13 12 10 12 12 12 13 14 15 14 16 15 15 16 17 19 18 18 18 19 17 16 14 15 14 14 15 13 11 13 14 14 15 15 17 17
6 5 5 5 6 5 8 8 8 7 8 11 12 16 17 20 22 18 14 13 7 11 10 16 13 11 9 8 9 10 10 7 2 8 4 4 4 5 9 8 3 7 7 8 6 3 7 4 6 9 10 14 14 13 11 12 14 15 15 15 15 14 14 15 15 15 15 16 17 18 19 19 14 14 15 15 14 12 11 12 13 12 13 12 13 14 15 16
3 3 2 3 7 7 7 9 9 9 9 10 11 14 17 20 22 20 13 9 16 9 11 16 16 7 3 4 7 8 4 4 3 2 4 4 4 2 3 3 3 6 9 4 4 4 4 2 4 9 7 12 14 14 13 13 14 16 17 17 18 18 17 14 12 12 14 17 17 18 18 15 12 11 11 7 8 10 11 11 12 12 13 13 14 14 14 14
5 2 1 2 10 7 11 10 11 7 13 12 12 13 13 20 22 19 11 8 10 15 14 12 10 8 5 9 10 8 5 4 3 1 1 1 1 1 1 2 2 1 1 5 2 6 7 7 4 6 9 11 12 13 14 15 13 15 17 17 18 18 16 14 16 16 16 16 15 13 15 12 12 4 7 8 8 8 11 12 13 14 13 13 13 12 12 13
Wind_Direction
350 348 345 346 344 340 337 336 336 335 335 335 333 331 329 326 323 320 318 316 316 313 313 317 315 316 317 316 317 318 306 256 218 208 155 55 42 100 179 81 125 156 199 221 172 190 155 152 147 172 168 196 133 188 110 228 308 224 230 236 191 114 227 151 103 20 68 89 103 125 83 291 164 150 114 164 119 110 129 99 107 105 71 65 90 111 130 147
349 347 344 344 341 337 336 335 335 334 334 333 331 330 326 323 321 319 316 316 316 314 314 313 314 310 311 314 312 314 292 252 203 80 57 75 144 137 92 119 148 200 229 225 189 173 144 142 144 185 166 149 181 105 204 124 248 253 218 262 118 171 59 337 18 36 327 63 357 77 158 320 42 268 150 238 126 137 109 78 141 111 105 114 127 129 152 153
348 346 343 341 339 337 335 333 332 332 331 329 327 325 321 319 317 317 314 314 314 313 313 313 311 308 302 303 310 279 267 234 199 62 82 122 136 128 138 156 205 199 247 351 4 311 86 139 151 189 189 140 225 137 234 114 240 140 284 216 88 45 12 312 286 304 312 41 263 359 347 301 51 325 118 266 20 174 52 50 182 190 130 144 143 155 156 159
347 343 339 339 337 336 334 332 331 330 327 326 325 321 318 316 314 313 311 311 309 310 313 312 310 307 310 303 313 276 252 240 75 68 96 132 147 164 167 181 187 216 258 50 4 225 133 154 171 205 151 199 128 184 205 123 255 94 247 286 89 76 305 116 1 339 334 335 303 280 12 279 102 22 254 20 256 129 122 240 274 181 149 149 159 161 170 159
345 341 338 338 336 333 332 331 329 326 325 324 321 320 317 313 311 309 308 308 308 308 311 313 310 305 300 300 290 237 261 238 76 53 114 142 155 170 181 182 229 208 262 105 177 132 208 176 166 200 220 133 162 178 153 122 314 295 285 354 316 296 249 87 16 32 347 330 303 342 279 27 19 251 264 292 314 46 47 110 109 124 129 150 159 165 174 160
343 339 338 335 334 331 330 330 327 325 324 321 319 317 313 310 309 307 305 307 307 307 309 310 309 307 303 297 254 230 254 83 136 113 127 155 163 164 176 156 228 229 187 194 228 153 196 176 193 173 180 193 156 210 107 11 303 265 163 288 319 315 303 341 328 44 317 317 306 315 37 207 263 46 26 359 23 41 21 74 112 110 120 135 151 168 171 160
342 337 335 334 331 329 328 328 324 324 321 318 316 314 312 308 307 305 305 306 304 306 308 308 307 309 308 296 226 237 161 94 223 114 126 156 166 159 155 168 199 213 237 228 134 175 170 166 227 153 179 304 122 351 115 139 214 285 353 347 301 311 294 319 321 342 328 285 314 56 141 250 192 197 93 99 59 37 60 98 108 111 118 134 157 177 166 155
340 336 333 332 331 329 328 326 325 322 318 316 314 310 310 307 306 305 304 302 302 303 306 308 309 308 324 266 245 171 111 110 106 111 131 135 170 163 192 193 217 238 339 46 50 91 210 161 186 144 223 220 111 234 100 246 189 250 253 19 301 292 307 341 331 318 299 261 225 177 201 109 224 43 179 99 83 92 108 114 111 112 125 140 153 167 160 149
339 334 332 331 331 329 326 325 323 320 317 314 312 311 308 308 305 304 300 299 299 301 302 306 306 309 278 281 281 154 100 78 49 137 145 162 178 180 198 194 193 266 63 70 42 53 272 95 171 280 99 180 132 243 196 269 167 349 329 304 291 291 338 6 349 53 139 138 160 174 147 134 159 235 169 97 98 110 125 120 114 118 134 140 152 166 162 158
339 335 333 331 331 329 327 325 323 320 318 315 313 311 309 304 302 297 296 292 295 295 297 303 305 304 283 274 239 228 97 73 140 155 169 173 173 188 218 274 221 267 242 67 142 10 39 58 1 15 321 41 273 337 337 272 30 346 316 321 301 327 322 46 357 85 96 118 164 241 156 151 160 219 131 115 114 131 133 119 124 129 131 146 143 157 166 157
339 335 334 334 333 331 328 325 323 321 319 317 315 311 305 301 294 291 289 289 288 290 292 290 309 287 289 298 262 120 106 161 141 170 173 175 177 204 214 212 243 271 299 112 355 27 60 41 25 72 242 44 248 168 251 26 339 310 323 293 257 243 197 120 135 132 164 121 228 248 187 154 162 215 59 123 122 143 140 135 146 149 144 161 155 166 163 168
338 337 337 336 333 331 328 325 324 323 320 319 315 309 305 297 292 286 283 286 281 278 278 287 286 279 278 279 277 72 153 99 150 162 179 182 195 240 301 234 232 283 302 330 73 36 31 85 215 277 1 318 235 250 157 3 296 313 289 249 170 220 211 176 211 124 266 119 231 221 232 220 200 216 108 117 131 140 152 150 160 163 157 158 162 164 171 179
339 338 337 336 333 331 328 326 326 324 323 320 314 315 308 300 292 283 275 273 260 260 255 244 258 261 289 245 77 103 148 109 157 170 178 203 221 215 226 233 247 276 293 304 0 9 313 196 229 267 27 283 322 314 39 281 297 273 226 283 236 208 214 150 160 156 218 85 215 215 246 190 157 113 127 129 145 148 153 170 173 165 168 164 169 178 168 169
340 337 337 336 333 331 329 328 327 325 323 321 321 317 312 305 292 284 264 248 255 298 202 207 261 259 264 17 106 133 165 99 144 185 196 194 230 196 196 203 234 262 260 287 334 333 263 241 245 298 276 268 347 38 254 214 220 248 119 243 265 253 142 134 143 145 223 116 209 236 267 107 102 120 123 146 147 160 172 171 174 172 169 163 173 189 176 173
339 338 337 335 333 331 332 330 326 324 325 325 320 322 313 308 301 294 252 182 230 210 184 232 232 253 235 92 111 105 91 247 198 167 176 196 222 201 186 166 199 217 252 273 306 25 224 219 233 232 201 125 266 255 245 199 194 221 222 204 199 247 138 132 143 184 243 146 215 241 250 212 138 126 146 146 155 168 176 181 176 172 179 169 177 190 183 184
339 338 337 335 333 331 330 330 326 326 326 326 324 319 316 307 330 75 197 74 153 177 203 232 202 265 288 167 118 138 193 196 157 48 161 250 234 250 78 219 37 183 216 174 210 180 200 228 278 356 291 203 237 252 259 211 192 203 266 48 276 219 148 160 144 188 302 151 203 230 281 261 124 115 141 155 163 168 185 184 188 181 182 181 181 188 196 188
339 337 337 336 334 331 330 330 329 326 327 326 322 315 300 290 232 105 117 133 158 209 246 293 169 241 271 77 139 205 169 126 41 175 155 209 266 299 236 222 210 171 139 138 176 184 157 236 141 230 226 277 329 274 249 228 210 188 236 348 31 289 166 155 123 151 184 240 214 211 247 276 75 113 144 166 182 182 198 197 191 196 192 190 186 194 195 204
338 337 336 335 334 332 331 330 329 327 328 326 317 297 303 256 202 153 159 208 153 220 231 270 267 273 214 153 200 174 96 156 163 12 304 111 239 221 247 241 188 237 205 173 164 222 163 227 202 249 186 213 219 221 245 218 180 82 173 205 169 167 290 0 311 93 252 211 252 218 237 251 136 117 156 171 189 207 212 206 206 204 201 194 200 196 197 200
338 337 335 334 333 332 330 328 327 328 329 323 293 273 259 256 251 253 231 165 207 187 213 181 188 216 20 162 85 126 162 60 234 243 173 181 172 200 191 248 260 244 213 239 141 226 166 239 210 234 220 206 204 250 303 39 0 41 308 354 327 263 150 45 52 68 302 252 230 233 242 235 217 190 167 175 188 210 213 209 218 219 211 206 207 202 201 201
338 337 335 332 331 329 328 327 324 326 335 335 325 235 211 232 202 191 203 221 242 261 318 22 211 351 147 144 156 67 96 199 212 173 129 147 172 181 196 227 211 234 234 233 140 209 358 232 208 209 224 183 82 239 358 3 3 298 238 271 302 293 135 100 74 43 273 267 246 258 249 251 241 228 201 196 190 207 217 217 219 215 212 212 207 210 205 199
338 337 334 331 329 328 325 325 323 322 328 307 287 287 347 359 327 356 342 289 281 273 264 247 247 255 314 66 93 213 202 171 236 161 171 143 215 199 176 202 210 214 181 337 287 100 232 236 216 219 68 74 150 126 205 193 245 277 270 260 203 239 324 62 3 43 248 284 296 303 275 259 242 225 217 209 215 223 221 222 223 223 217 211 213 215 207 199
338 337 334 333 329 326 325 323 321 319 311 260 282 354 60 36 9 353 305 293 213 236 245 251 275 258 255 252 293 300 282 230 184 182 140 206 176 219 138 228 196 236 121 178 197 196 208 227 171 106 104 110 134 195 211 234 228 228 270 268 284 212 50 157 131 111 146 264 302 335 281 252 234 226 215 220 226 234 232 233 231 225 220 211 213 213 209 197
338 337 336 335 331 324 325 318 316 312 314 326 338 2 46 358 338 315 270 273 271 214 232 217 220 231 222 186 222 191 231 206 190 177 172 203 181 243 150 212 192 212 187 201 217 198 209 212 119 128 162 181 164 199 207 214 239 255 224 239 252 49 297 199 127 111 152 278 319 315 284 264 219 220 227 222 228 229 229 228 232 236 229 221 213 209 208 195
336 337 336 335 332 326 320 319 302 283 358 338 333 52 18 338 317 298 254 271 312 204 222 212 243 223 213 216 173 201 217 185 230 169 152 194 206 141 220 220 200 214 220 183 261 245 224 68 86 156 193 211 198 188 216 228 222 179 283 287 282 306 77 310 46 11 215 206 256 272 257 256 217 219 212 203 212 225 216 223 232 232 235 233 230 222 207 205
335 336 336 335 333 326 319 314 295 13 319 257 146 69 15 342 323 296 281 265 218 217 113 213 218 227 180 61 157 204 207 242 227 103 163 203 169 179 216 105 263 222 214 158 239 246 217 95 107 174 189 210 212 205 220 263 257 197 203 299 343 335 288 215 271 280 242 220 131 312 284 271 175 226 239 141 188 218 214 228 229 227 222 218 221 217 210 211
333 332 337 337 334 329 312 296 73 332 308 57 66 41 352 350 324 274 277 277 279 116 182 191 170 155 156 180 164 206 159 212 188 154 173 209 224 261 121 212 225 254 184 195 246 293 55 125 199 185 193 203 215 246 157 232 279 281 111 152 129 302 302 282 283 268 257 268 99 326 287 288 177 231 192 195 237 232 205 228 240 232 224 217 223 216 207 203
329 329 335 338 336 336 322 96 342 295 266 101 41 355 337 342 39 208 275 230 252 113 176 69 217 113 259 156 171 159 196 176 118 140 185 175 200 162 239 167 187 237 343 254 236 213 177 154 180 214 210 208 215 229 179 232 266 265 85 136 199 251 256 314 299 284 281 336 292 245 267 280 284 283 120 163 248 252 242 233 241 245 238 233 231 219 211 200
324 326 330 335 333 328 292 313 317 328 30 51 344 337 333 357 176 223 254 302 268 145 157 165 355 97 258 163 183 199 36 116 173 172 200 158 216 167 240 213 215 198 176 210 244 92 198 172 191 196 214 219 225 255 122 209 251 46 112 165 226 261 307 279 271 283 302 315 287 223 170 256 256 248 182 237 257 246 246 245 242 243 237 230 234 237 213 207
318 322 326 332 325 309 278 273 308 292 59 355 334 324 346 137 229 289 288 273 109 177 0 141 151 186 171 166 202 226 189 198 251 130 148 170 241 290 213 216 223 183 183 224 252 138 171 255 189 237 219 222 225 115 207 200 244 125 132 189 178 223 243 262 270 269 248 259 260 259 84 286 282 291 238 169 258 273 264 257 259 267 303 307 267 256 240 185
315 317 323 334 316 203 269 251 237 263 335 333 318 312 223 192 219 229 206 250 119 191 185 71 210 177 176 180 204 199 220 182 72 138 168 191 173 219 17 351 221 203 205 211 250 318 82 93 0 256 224 295 104 82 41 234 356 106 176 201 202 218 224 216 264 286 265 242 245 116 267 283 291 291 306 293 21 350 334 320 323 304 245 204 99 286 245 194
310 311 315 327 312 351 313 266 109 87 342 322 311 282 216 212 245 268 227 324 290 85 158 172 181 163 187 196 193 193 220 198 175 167 164 183 174 207 157 179 220 227 226 217 227 220 209 190 215 197 267 134 174 136 118 174 188 206 207 230 226 215 210 230 222 226 251 250 119 143 209 231 269 221 150 127 25 268 283 291 295 309 316 326 332 313 43 136
306 304 301 299 281 288 254 40 67 330 331 313 296 235 215 228 204 207 227 92 255 139 202 179 189 195 200 207 222 181 200 201 196 194 189 191 187 196 191 226 169 212 215 210 218 193 213 212 214 183 194 224 202 233 157 189 184 222 231 227 241 243 197 243 202 212 216 291 114 126 185 233 231 251 287 301 294 284 288 290 297 307 313 320 322 327 307 263
304 300 294 272 257 226 234 257 301 313 305 289 270 220 215 226 229 199 239 175 245 87 157 329 189 205 207 203 219 204 200 215 185 213 212 192 218 199 205 221 194 215 238 179 220 181 212 214 196 201 184 206 231 228 174 204 199 214 224 219 226 247 243 247 259 275 294 188 117 163 162 263 278 266 227 318 4 47 191 227 250 278 289 301 309 311 291 257
301 298 296 271 246 234 244 233 229 260 284 273 238 200 234 231 223 182 238 214 251 116 109 186 153 216 217 214 211 197 194 220 188 203 210 201 214 222 197 213 227 211 253 155 221 196 200 178 207 190 206 172 213 231 231 239 187 213 224 235 233 246 253 237 241 237 249 319 134 153 234 254 269 78 156 158 263 252 235 237 248 252 257 262 275 281 279 274
302 290 268 270 243 242 233 227 218 210 261 243 220 219 216 222 220 218 218 226 178 188 202 137 206 207 214 231 232 210 235 198 204 202 206 218 210 221 213 204 204 230 215 228 202 254 234 281 117 175 66 171 209 212 263 254 245 198 218 249 254 242 244 259 2 323 316 306 267 177 250 280 298 42 239 249 258 262 247 238 225 224 226 229 240 246 255 264
296 290 265 258 237 254 193 197 192 187 210 212 223 223 226 208 215 202 249 31 136 210 179 181 228 217 224 222 208 225 159 266 178 213 214 217 221 222 218 211 198 203 209 218 158 216 192 233 141 149 175 204 215 193 213 219 236 159 200 217 237 351 274 260 189 41 330 268 262 259 247 253 239 237 228 46 274 253 230 211 202 229 211 212 238 239 235 246
310 306 248 208 221 177 142 163 169 180 200 223 225 234 227 228 231 215 134 210 72 257 180 223 200 212 216 220 214 204 189 212 199 207 219 206 230 229 218 212 205 195 215 221 199 235 241 209 148 174 187 168 38 221 188 204 287 139 220 201 106 32 311 247 263 148 232 246 248 219 261 274 258 285 117 244 275 285 283 272 259 264 223 217 209 214 208 207
313 286 269 268 220 105 141 159 166 187 211 223 232 244 237 240 215 237 176 165 190 205 238 217 222 202 230 234 221 202 179 206 183 197 235 177 251 187 212 216 193 217 212 216 256 189 222 253 170 193 180 135 160 176 185 188 238 259 315 110 209 180 218 201 248 250 249 256 268 246 263 271 264 267 224 240 283 316 297 303 296 277 262 259 240 227 200 162
287 287 262 141 115 158 146 166 188 184 217 226 235 236 234 249 245 220 211 231 246 236 230 230 248 186 250 229 249 200 179 209 190 202 219 183 227 162 215 208 190 209 216 215 219 198 192 241 181 152 185 152 177 201 218 181 179 243 216 219 250 283 254 207 200 249 262 265 258 255 260 272 247 245 276 288 280 283 299 287 290 303 294 282 277 275 255 203
277 244 224 88 121 163 157 159 169 203 218 231 231 240 250 239 232 228 221 203 215 220 232 245 223 243 202 240 245 220 196 228 211 212 218 167 217 120 208 186 220 185 203 205 222 186 215 199 257 135 128 161 207 198 227 202 195 192 209 224 199 231 25 297 270 237 255 260 257 267 247 245 267 176 230 289 287 282 282 285 286 287 291 290 287 286 292 305
267 273 248 96 161 149 158 155 181 198 219 235 246 254 243 238 240 231 229 214 244 235 272 240 234 226 227 219 223 232 216 218 219 224 210 204 210 195 204 199 190 170 178 197 216 195 215 190 231 164 191 200 227 196 232 249 227 210 208 222 215 216 209 225 244 220 245 255 260 262 260 259 272 111 223 284 287 284 275 269 278 283 288 294 296 289 286 290
284 254 158 83 157 185 170 150 199 207 225 228 233 224 240 243 259 257 231 211 231 237 211 264 250 258 239 230 246 199 218 218 220 230 212 231 190 250 144 189 200 168 178 184 206 190 228 211 221 230 208 224 190 75 14 329 318 274 244 231 222 234 239 242 248 241 209 244 261 264 275 261 253 161 255 274 280 287 291 286 277 280 280 286 286 286 286 278
218 255 64 171 181 231 227 210 189 185 211 238 256 259 241 235 242 241 241 213 223 227 239 225 227 230 237 242 226 230 214 233 220 220 224 218 218 196 150 177 181 187 209 177 182 126 57 206 215 233 238 126 114 109 120 16 271 239 234 256 251 237 238 248 255 268 256 243 219 248 251 255 247 208 242 257 278 288 283 264 268 269 280 280 277 276 276 273
273 287 253 119 210 278 236 215 204 209 216 227 237 252 239 249 227 228 232 230 222 207 223 229 231 228 252 217 234 235 199 238 217 234 228 219 220 127 150 174 180 199 210 171 211 153 196 209 226 223 229 228 209 193 208 179 225 235 233 218 230 242 245 252 274 279 261 255 266 263 265 268 105 164 194 244 277 279 274 263 250 263 263 266 268 271 278 282
296 247 243 185 197 258 239 238 235 184 216 227 238 240 236 231 226 237 238 235 222 235 223 228 230 213 221 201 234 234 225 225 249 219 244 225 217 137 164 183 190 215 214 195 247 154 221 199 201 223 223 225 225 221 221 204 207 220 237 235 213 230 231 217 235 245 255 250 253 257 263 266 263 168 212 247 269 269 269 277 281 263 267 269 272 280 289 293
220 269 171 168 204 225 253 281 275 229 230 236 244 247 250 247 219 204 227 248 238 238 239 258 224 229 222 190 220 223 227 222 234 238 211 218 203 182 179 195 194 216 160 132 171 174 219 224 221 229 237 236 236 234 46 300 215 212 201 211 214 220 230 234 252 252 249 256 255 251 261 275 274 262 266 268 261 266 274 278 281 275 252 239 255 272 282 286
326 249 262 245 176 221 242 235 237 233 244 211 243 221 245 244 249 237 180 232 208 225 237 243 240 215 209 210 222 228 227 227 218 250 237 231 218 178 140 214 198 199 132 173 195 198 217 232 220 234 243 251 257 255 118 278 239 225 229 213 218 217 217 227 230 241 250 268 263 256 266 271 274 277 274 279 283 284 287 288 276 269 277 285 283 286 286 281
235 222 246 23 296 222 258 243 242 246 249 238 247 229 244 244 238 235 185 227 94 211 218 202 232 230 228 211 210 226 189 222 209 220 221 232 219 165 179 195 211 160 186 185 191 212 218 226 220 224 236 242 247 255 238 236 246 246 240 240 228 218 218 223 233 242 248 250 263 274 276 273 275 275 282 284 289 292 294 289 294 311 310 293 287 286 285 284
261 345 291 103 240 183 231 252 295 277 261 244 253 243 244 236 237 232 235 191 197 202 207 223 215 217 220 214 205 232 195 202 219 223 217 203 217 196 194 180 215 174 207 203 191 226 240 236 230 219 240 237 235 234 226 236 237 238 237 235 240 235 236 237 241 243 247 255 259 268 273 276 279 280 283 285 285 285 285 291 294 287 288 291 287 285 283 282
225 232 236 205 245 248 237 229 235 242 261 257 253 238 241 241 240 236 231 222 207 213 187 228 222 211 204 209 198 223 215 224 270 212 206 188 173 246 217 208 184 182 211 192 177 203 223 220 145 202 236 240 234 232 229 225 234 238 236 236 237 235 237 239 247 249 256 261 264 265 271 272 266 273 277 276 276 280 289 288 294 300 297 294 292 288 287 286
316 4 346 281 250 238 241 232 232 227 239 236 244 248 245 243 246 242 236 209 220 209 186 211 218 182 156 192 224 217 147 163 115 85 144 227 221 152 216 147 348 183 197 173 187 145 191 228 168 221 235 242 232 231 228 230 232 238 237 233 232 232 236 231 237 238 246 255 260 265 265 264 271 282 291 286 284 295 296 299 297 297 301 302 299 299 299 297
245 213 325 294 254 232 245 232 235 235 236 225 222 234 234 239 242 244 257 260 254 231 201 190 190 168 186 188 195 171 155 139 126 114 2 35 47 135 27 46 5 88 184 206 190 195 191 211 189 209 230 241 240 228 234 232 237 240 236 234 233 236 240 240 242 239 240 251 257 256 258 269 289 342 312 300 310 302 295 298 299 300 301 303 311 319 320 317